When you browse on this site, cookies collect data to enhance your experience and personalize the content and advertising you see.
Visit our Privacy Policy to learn more. By continuing to use the site, you agree to this use of cookies and data.
  • In Portugal
  • List of Countries
  • For 7 days
  • Water Temperature
  • Satellite Maps
  • Weather Map
  • Weather Widgets
  • user-avatar
    Login

    Hourly Weather Asuan

    Today, 23 May, Thursday

    Time Temperature Precipitation Wind Pressure Humidity
    00:00 +36°C° 0 mm 3 mps 741 mmHg 14%
    01:00 +35°C° 0 mm 2 mps 741 mmHg 15%
    02:00 +32°C° 0 mm 2 mps 741 mmHg 16%
    03:00 +32°C° 0 mm 2 mps 741 mmHg 16%
    04:00 +32°C° 0 mm 2 mps 741 mmHg 15%
    05:00 +32°C° 0 mm 2 mps 741 mmHg 15%
    06:00 +35°C° 0 mm 2 mps 741 mmHg 14%
    07:00 +37°C° 0 mm 2 mps 742 mmHg 12%
    08:00 +39°C° 0 mm 2 mps 742 mmHg 11%
    09:00 +40°C° 0 mm 2 mps 742 mmHg 11%
    10:00 +41°C° 0 mm 2 mps 742 mmHg 10%
    11:00 +43°C° 0 mm 2 mps 741 mmHg 9%
    12:00 +43°C° 0 mm 2 mps 741 mmHg 9%
    13:00 +45°C° 0 mm 2 mps 740 mmHg 9%
    14:00 +45°C° 0 mm 2 mps 740 mmHg 9%
    15:00 +45°C° 0 mm 2 mps 740 mmHg 9%
    16:00 +44°C° 0 mm 1 mps 740 mmHg 8%
    17:00 +44°C° 0 mm 1 mps 739 mmHg 8%
    18:00 +43°C° 0 mm 1 mps 740 mmHg 9%
    19:00 +41°C° 0 mm 1 mps 740 mmHg 10%
    20:00 +39°C° 0 mm 1 mps 740 mmHg 10%
    21:00 +38°C° 0 mm 2 mps 740 mmHg 11%
    22:00 +38°C° 0 mm 2 mps 740 mmHg 12%
    23:00 +37°C° 0 mm 2 mps 740 mmHg 13%

    Tomorrow, 24 May, Friday

    Time Temperature Precipitation Wind Pressure Humidity
    00:00 +36°C° 0 mm 2 mps 740 mmHg 14%
    01:00 +34°C° 0 mm 1 mps 740 mmHg 16%
    02:00 +33°C° 0 mm 1 mps 740 mmHg 18%
    03:00 +32°C° 0 mm 1 mps 740 mmHg 18%
    04:00 +30°C° 0 mm 0 mps 740 mmHg 19%
    05:00 +29°C° 0 mm 0 mps 740 mmHg 19%
    06:00 +34°C° 0 mm 1 mps 740 mmHg 17%
    07:00 +36°C° 0 mm 1 mps 741 mmHg 15%
    08:00 +39°C° 0 mm 1 mps 741 mmHg 13%
    09:00 +41°C° 0 mm 2 mps 741 mmHg 13%
    10:00 +43°C° 0 mm 3 mps 741 mmHg 13%
    11:00 +45°C° 0 mm 4 mps 741 mmHg 12%
    12:00 +45°C° 0 mm 3 mps 740 mmHg 12%
    13:00 +46°C° 0 mm 3 mps 739 mmHg 11%
    14:00 +47°C° 0 mm 3 mps 739 mmHg 10%
    15:00 +47°C° 0 mm 3 mps 739 mmHg 10%
    16:00 +46°C° 0 mm 3 mps 738 mmHg 10%
    17:00 +46°C° 0 mm 2 mps 738 mmHg 10%
    18:00 +45°C° 0 mm 2 mps 738 mmHg 10%
    19:00 +42°C° 0 mm 2 mps 739 mmHg 11%
    20:00 +41°C° 0 mm 2 mps 739 mmHg 12%
    21:00 +41°C° 0 mm 2 mps 739 mmHg 12%
    22:00 +40°C° 0 mm 3 mps 740 mmHg 12%
    23:00 +41°C° 0 mm 4 mps 740 mmHg 12%

    Day after tomorrow, 25 May, Saturday

    Time Temperature Precipitation Wind Pressure Humidity
    00:00 +39°C° 0 mm 3 mps 740 mmHg 14%
    01:00 +37°C° 0 mm 2 mps 739 mmHg 17%
    02:00 +36°C° 0 mm 2 mps 739 mmHg 19%
    03:00 +34°C° 0 mm 1 mps 739 mmHg 20%
    04:00 +33°C° 0 mm 1 mps 739 mmHg 21%
    05:00 +30°C° 0 mm 0 mps 739 mmHg 22%
    06:00 +34°C° 0 mm 1 mps 740 mmHg 21%
    07:00 +37°C° 0 mm 1 mps 740 mmHg 19%
    08:00 +40°C° 0 mm 1 mps 741 mmHg 17%
    09:00 +41°C° 0 mm 2 mps 741 mmHg 15%
    10:00 +44°C° 0 mm 3 mps 741 mmHg 13%
    11:00 +45°C° 0 mm 4 mps 741 mmHg 12%
    12:00 +46°C° 0 mm 3 mps 740 mmHg 11%
    13:00 +46°C° 0 mm 3 mps 739 mmHg 10%
    14:00 +47°C° 0 mm 3 mps 739 mmHg 10%
    15:00 +47°C° 0 mm 3 mps 738 mmHg 9%
    16:00 +47°C° 0 mm 3 mps 738 mmHg 9%
    17:00 +47°C° 0 mm 3 mps 738 mmHg 9%
    18:00 +45°C° 0 mm 2 mps 738 mmHg 9%
    19:00 +42°C° 0 mm 2 mps 738 mmHg 10%
    20:00 +41°C° 0 mm 2 mps 739 mmHg 11%
    21:00 +41°C° 0 mm 2 mps 739 mmHg 12%
    22:00 +40°C° 0 mm 3 mps 739 mmHg 13%
    23:00 +40°C° 0 mm 3 mps 740 mmHg 14%

    26 May, Sunday

    Time Temperature Precipitation Wind Pressure Humidity
    00:00 +40°C° 0 mm 4 mps 739 mmHg 15%
    01:00 +38°C° 0 mm 4 mps 739 mmHg 16%
    02:00 +37°C° 0 mm 4 mps 739 mmHg 17%
    03:00 +36°C° 0 mm 4 mps 739 mmHg 18%
    04:00 +36°C° 0 mm 4 mps 739 mmHg 20%
    05:00 +35°C° 0 mm 3 mps 739 mmHg 21%
    06:00 +37°C° 0 mm 4 mps 739 mmHg 19%
    07:00 +38°C° 0 mm 4 mps 740 mmHg 18%
    08:00 +40°C° 0 mm 4 mps 740 mmHg 16%
    09:00 +42°C° 0 mm 4 mps 740 mmHg 15%
    10:00 +43°C° 0 mm 3 mps 740 mmHg 14%
    11:00 +45°C° 0 mm 2 mps 740 mmHg 12%
    12:00 +45°C° 0 mm 2 mps 739 mmHg 11%
    13:00 +46°C° 0 mm 2 mps 738 mmHg 11%
    14:00 +47°C° 0 mm 2 mps 738 mmHg 10%
    15:00 +47°C° 0 mm 2 mps 738 mmHg 10%
    16:00 +46°C° 0 mm 2 mps 737 mmHg 10%
    17:00 +46°C° 0 mm 2 mps 737 mmHg 10%
    18:00 +45°C° 0 mm 2 mps 737 mmHg 11%
    19:00 +42°C° 0 mm 2 mps 738 mmHg 11%
    20:00 +40°C° 0 mm 1 mps 738 mmHg 12%
    21:00 +40°C° 0 mm 2 mps 738 mmHg 12%
    22:00 +40°C° 0 mm 3 mps 739 mmHg 12%
    23:00 +41°C° 0 mm 4 mps 739 mmHg 13%

    27 May, Monday

    Time Temperature Precipitation Wind Pressure Humidity
    00:00 +40°C° 0 mm 5 mps 739 mmHg 13%
    01:00 +39°C° 0 mm 6 mps 739 mmHg 13%
    02:00 +38°C° 0 mm 7 mps 738 mmHg 13%
    03:00 +36°C° 0 mm 6 mps 739 mmHg 13%
    04:00 +35°C° 0 mm 5 mps 739 mmHg 14%
    05:00 +35°C° 0 mm 5 mps 739 mmHg 14%
    06:00 +36°C° 0 mm 5 mps 739 mmHg 13%
    07:00 +39°C° 0 mm 5 mps 739 mmHg 12%
    08:00 +41°C° 0 mm 5 mps 740 mmHg 11%
    09:00 +42°C° 0 mm 4 mps 740 mmHg 11%
    10:00 +44°C° 0 mm 4 mps 739 mmHg 10%
    11:00 +45°C° 0 mm 3 mps 739 mmHg 10%
    12:00 +46°C° 0 mm 3 mps 739 mmHg 10%
    13:00 +46°C° 0 mm 2 mps 738 mmHg 10%
    14:00 +47°C° 0 mm 2 mps 737 mmHg 9%
    15:00 +47°C° 0 mm 2 mps 737 mmHg 9%
    16:00 +47°C° 0 mm 2 mps 737 mmHg 9%
    17:00 +47°C° 0 mm 2 mps 737 mmHg 8%
    18:00 +45°C° 0 mm 2 mps 737 mmHg 9%
    19:00 +43°C° 0 mm 2 mps 738 mmHg 10%
    20:00 +41°C° 0 mm 2 mps 738 mmHg 10%
    21:00 +42°C° 0 mm 3 mps 738 mmHg 10%
    22:00 +42°C° 0 mm 4 mps 739 mmHg 10%
    23:00 +42°C° 0 mm 5 mps 739 mmHg 10%

    28 May, Tuesday

    Time Temperature Precipitation Wind Pressure Humidity
    00:00 +41°C° 0 mm 5 mps 739 mmHg 11%
    01:00 +40°C° 0 mm 5 mps 738 mmHg 11%
    02:00 +39°C° 0 mm 5 mps 738 mmHg 12%
    03:00 +37°C° 0 mm 5 mps 738 mmHg 12%
    04:00 +37°C° 0 mm 5 mps 738 mmHg 13%
    05:00 +36°C° 0 mm 5 mps 739 mmHg 14%
    06:00 +39°C° 0 mm 5 mps 739 mmHg 12%
    07:00 +41°C° 0 mm 5 mps 739 mmHg 11%
    08:00 +42°C° 0 mm 5 mps 740 mmHg 10%
    09:00 +44°C° 0 mm 4 mps 740 mmHg 9%
    10:00 +45°C° 0 mm 4 mps 739 mmHg 9%
    11:00 +48°C° 0 mm 4 mps 739 mmHg 8%
    12:00 +47°C° 0 mm 3 mps 739 mmHg 8%
    13:00 +48°C° 0 mm 3 mps 738 mmHg 8%
    14:00 +48°C° 0 mm 2 mps 737 mmHg 8%
    15:00 +48°C° 0 mm 2 mps 737 mmHg 8%
    16:00 +48°C° 0 mm 2 mps 737 mmHg 7%
    17:00 +47°C° 0 mm 1 mps 737 mmHg 7%
    18:00 +46°C° 0 mm 2 mps 737 mmHg 8%
    19:00 +43°C° 0 mm 2 mps 738 mmHg 8%
    20:00 +41°C° 0 mm 2 mps 738 mmHg 9%
    21:00 +42°C° 0 mm 3 mps 738 mmHg 9%
    22:00 +42°C° 0 mm 4 mps 738 mmHg 10%
    23:00 +41°C° 0 mm 5 mps 738 mmHg 10%
    Show more